Location: New Frontier Mobile Home Park
(32.8448°N, 116.9675°W)
Time: 21:59:18
(UTC+00:00)

Lacrosse 5 - Pass Details

Date: 14 July 2020
Orbit: 717 x 720 km, 57.0° (Epoch: 02 August)

Event Time Altitude Azimuth Distance (km) Brightness Sun altitude
Exits shadow 06:47:15 14° 46° (NE) 1,926 4.3 -33.3°
Drops below altitude 10° 06:47:58 10° 44° (NE) 2,200 4.6 -33.3°
Sets 06:50:22 0° 42° (NE) 3,123 5.5 -33.5°
